Location: Philomena
(55.1756°N, 111.6233°W)
Time: 11:52:08
(UTC+00:00)

PCSat - Visible Passes

Search period start: 05 December 2023 00:00
Search period end: 15 December 2023 00:00
Orbit: 784 x 792 km, 67.1° (Epoch: 04 December)

Date Brightness Start Highest point End Pass type
(mag) Time Alt. Az. Time Alt. Az. Time Alt. Az.
05 Dec 11.8 10:46:34 19° E 10:46:34 19° E 10:49:46 10° ENE visible
05 Dec 9.5 12:27:17 53° SSW 12:28:36 82° SE 12:34:04 10° NE visible
05 Dec 10.2 14:08:00 12° W 14:12:30 35° NNW 14:17:30 10° NE visible
06 Dec 12.3 10:16:35 13° E 10:16:35 13° E 10:17:42 10° ENE visible
06 Dec 9.8 11:57:18 66° ESE 11:57:18 66° ESE 12:02:32 10° NE visible
06 Dec 10.1 13:38:01 23° W 13:40:50 40° NNW 13:45:58 10° NE visible
07 Dec 10.7 11:27:10 40° ENE 11:27:10 40° ENE 11:30:59 10° NE visible
07 Dec 9.9 13:07:52 39° WNW 13:09:12 47° NW 13:14:28 10° NE visible
07 Dec 10.8 14:49:20 10° WNW 14:53:47 25° N 14:58:15 10° NE visible
08 Dec 11.6 10:56:55 25° ENE 10:56:55 25° ENE 10:59:23 10° NE visible
08 Dec 9.6 12:37:38 56° NW 12:37:38 56° NW 12:42:58 10° NE visible
08 Dec 10.7 14:18:19 14° WNW 14:22:02 26° NNW 14:26:36 10° NE visible
09 Dec 12.2 10:26:36 15° ENE 10:26:36 15° ENE 10:27:44 10° NE visible
09 Dec 10.1 12:07:17 51° NNE 12:07:17 51° NNE 12:11:28 10° NE visible
09 Dec 10.6 13:47:58 21° WNW 13:50:17 29° NNW 13:55:00 10° NE visible
10 Dec 10.8 11:36:53 35° NE 11:36:53 35° NE 11:39:57 10° NE visible
10 Dec 10.4 13:17:34 29° NW 13:18:35 32° NNW 13:23:25 10° NE visible
11 Dec 11.6 11:06:26 23° NE 11:06:26 23° NE 11:08:26 10° NE visible
11 Dec 10.3 12:47:06 35° NNW 12:47:06 35° NNW 12:51:52 10° NE visible
11 Dec 10.9 14:27:47 12° NW 14:31:42 23° N 14:36:02 10° NE visible
12 Dec 12.1 10:35:55 15° NE 10:35:55 15° NE 10:36:54 10° NE visible
12 Dec 10.6 12:16:36 34° N 12:16:36 34° N 12:20:20 10° NE visible
12 Dec 10.9 13:57:16 17° NW 13:59:55 24° N 14:04:18 10° NE visible
13 Dec 11.1 11:46:04 28° NNE 11:46:04 28° NNE 11:48:49 10° NE visible
13 Dec 10.8 13:26:44 22° NW 13:28:08 25° N 13:32:36 10° NE visible
14 Dec 11.6 11:15:30 21° NNE 11:15:30 21° NNE 11:17:19 10° NE visible
14 Dec 10.8 12:56:10 26° NNW 12:56:22 27° NNW 13:00:57 10° NE visible
14 Dec 11.0 14:36:54 10° NW 14:41:22 25° N 14:45:48 10° ENE visible
